SCP
0 0 0 0 0 0 0 0 0 0 0 0 0 0 0 0 0 0 0 0 0 0 0 0 0 0 0 0 0 0 0 0 0 0 0 0 0 0
0 0 0 0 0 0 0 0 0 0 0 0 0 0 0 0 0 0 0 0 0 0 0 0 0 0 0 0 0 0 0 0 0 0 0 0 0 0
0 0 0 0 0 0 0 0 0 0 0 0 0 0 0 0 0 0 0 0 0 0 0 0 0 0 0 0 0 0 0 0 0 0 0 0 0 0
0 0 0 0 0 0 0 0 0 0 0 0 0 0 0 0 0 0 0 0 0 0 0 0 0 0 0 0 0 0 0 0 0 0 0 0 0 0
0 0 0 0 0 0 0 0 0 0 0 0 0 0 0 0 0 0 0 0 0 0 0 0 0 0 0 0 0 0 0 0 0 0 0 0 0 0
0 0 0 0 0 0 0 0 0 0 0 0 0 0 0 0 0 0 0 0 0 0 0 0 0 0 0 0 0 0 0 0 0 0 0 0 0 0
0 0 0 0 0 0 0 0 0 0 0 0 0 0 0 0 0 0 0 0 0 0 0 0 0 0 0 0 0 0 0 0 0 0 0 0 0 0
0 0 0 0 0 0 0 0 0 0 0 0 0 0 0 0 0 0 0 0 0 0 0 0 0 0 0 0 0 0 0 0 0 0 0 0 0 0
0 0 0 0 0 0 0 0 0 0 0 0 0 0 0 0 0 0 0 0 0 0 0 0 0 0 0 0 0 0 0 0 0 0 0 0 0 0
0 0 0 0 0 0 0 0 0 0 0 0 0 0 0 0 0 0 0 0 0 0 0 0 0 0 0 0 0 0 0 0 0 0 0 0 0 0
0 0 0 0 0 0 0 0 0 0 0 0 0 0 0 0 0 0 0 0 0 0 0 0 0 0 0 0 0 0 0 0 0 0 0 0 0 0
0 0 0 0 0 0 0 0 0 0 0 0 0 0 0 0 0 0 0 0 0 0 0 0 0 0 0 0 0 0 0 0 0 0 0 0 0 0
0 0 0 0 0 0 0 0 0 0 0 0 0 0 0 0 0 0 0 0 0 0 0 0 0 0 0 0 0 0 0 0 0 0 0 0 0 0
0 0 0 0 0 0 0 0 0 0 0 0 0 0 0 0 0 0 0 0 0 0 0 0 0 0 0 0 0 0 0 0 0 0 0 0 0 0
0 0 0 0 0 0 0 0 0 0 0 0 0 0 0 0 0 0 0 0 0 0 0 0 0 0 0 0 0 0 0 0 0 0 0 0 0 0
0 0 0 0 0 0 0 0 0 0 0 0 0 0 0 0 0 0 0 0 0 0 0 0 0 0 0 0 0 0 0 0 0 0 0 0 0 0
0 0 0 0 0 0 0 0 0 0 0 0 0 0 0 0 0 0 0 0 0 0 0 0 0 0 0 0 0 0 0 0 0 0 0 0 0 0
0 0 0 0 0 0 0 0 0 0 0 0 0 0 0 0 0 0 0 0 0 0 0 0 0 0 0 0 0 0 0 0 0 0 0 0 0 0
0 0 0 0 0 0 0 0 0 0 0 0 0 0 0 0 0 0 0 0 0 0 0 0 0 0 0 0 0 0 0 0 0 0 0 0 0 0
0 0 0 0 0 0 0 0 0 0 0 0 0 0 0 0 0 0 0 0 0 0 0 0 0 0 0 0 0 0 0 0 0 0 0 0 0 0
0 0 0 0 0 0 0 0 0 0 0 0 0 0 0 0 0 0 0 0 0 0 0 0 0 0 0 0 0 0 0 0 0 0 0 0 0 0
0 0 0 0 0 0 0 0 0 0 0 0 0 0 0 0 0 0 0 0 0 0 0 0 0 0 0 0 0 0 0 0 0 0 0 0 0 0
0 0 0 0 0 0 0 0 0 0 0 0 0 0 0 0 0 0 0 0 0 0 0 0 0 0 0 0 0 0 0 0 0 0 0 0 0 0
Wind_Speed
7 7 6 5 5 5 4 2 2 1 1 2 2 3 4 3 5 4 5 7 8 8 9 9 10 10 10 11 11 11 12 12 12 13 13 13 13 13
5 7 6 5 5 5 4 4 3 2 1 1 2 3 4 4 6 5 5 9 9 10 10 9 9 10 11 11 11 11 12 12 12 13 13 13 14 13
6 7 6 5 5 4 4 4 4 2 1 1 2 3 3 4 6 5 5 5 6 10 10 10 10 10 10 11 10 11 11 11 11 11 12 12 13 13
6 6 5 4 5 4 4 4 3 2 1 2 2 2 3 4 5 6 5 5 5 9 10 10 10 10 9 9 9 9 9 9 9 10 11 11 12 12
4 4 4 4 4 3 3 3 2 2 1 1 2 2 2 3 4 4 5 4 6 6 8 8 9 10 10 9 9 8 8 8 8 9 9 10 10 11
4 3 3 3 2 2 2 2 1 2 1 1 2 2 3 3 3 3 5 5 5 5 6 7 8 9 9 9 9 8 8 8 8 8 8 9 9 10
4 4 3 3 3 2 2 1 1 1 1 1 2 2 3 3 3 3 4 6 4 2 5 5 5 5 5 7 8 9 9 8 8 8 8 8 8 9
4 4 3 4 5 6 6 4 2 2 2 2 2 3 4 3 3 3 3 4 4 3 4 5 3 4 5 4 7 9 9 9 9 9 8 8 9 9
3 3 3 3 5 4 6 6 4 4 4 3 3 4 3 3 3 4 3 3 4 4 3 4 3 4 5 4 8 9 9 10 10 9 9 9 8 8
3 2 3 4 4 5 5 5 5 4 3 3 5 6 6 6 5 4 4 5 6 3 2 3 4 4 5 4 6 8 9 10 11 10 10 9 9 8
4 3 4 4 6 6 4 5 6 5 3 4 6 7 9 8 5 3 3 2 4 3 1 2 4 4 4 3 5 8 9 10 11 11 11 11 10 8
4 4 4 6 7 6 3 3 5 5 7 7 6 6 4 4 2 3 3 2 2 3 1 2 3 4 4 3 4 5 6 8 10 10 11 11 11 7
3 4 4 8 8 6 2 2 4 5 5 5 5 5 5 4 3 2 3 3 3 3 2 1 3 2 3 4 4 4 5 5 6 6 8 10 10 8
3 3 5 8 7 6 4 4 4 3 2 3 4 5 5 5 5 5 4 4 6 6 4 2 2 2 3 4 4 5 5 5 5 5 5 7 7 8
2 5 6 7 6 5 7 7 5 4 3 4 4 4 4 5 5 4 3 2 3 3 3 3 3 2 2 3 4 4 5 4 5 5 5 5 6 6
3 4 5 6 6 5 5 5 4 3 3 3 4 4 4 4 3 3 3 4 3 3 2 1 2 3 2 2 3 4 4 4 5 5 5 4 4 5
2 3 4 5 5 5 5 5 5 5 5 4 4 5 5 5 4 3 3 2 2 3 4 3 2 2 3 2 3 4 4 4 4 5 4 4 4 5
3 3 3 3 4 4 5 5 5 5 5 5 4 4 5 5 4 4 3 2 3 3 3 3 4 3 1 1 3 3 4 4 4 4 4 4 5 5
3 3 3 3 3 3 4 4 4 5 4 4 4 5 5 4 3 4 4 3 4 4 3 3 3 3 4 5 2 1 2 4 4 4 3 3 4 5
2 2 2 3 3 3 4 4 4 5 4 5 5 5 5 4 4 4 4 4 4 4 4 3 3 3 2 3 4 3 2 3 3 4 4 3 3 3
2 2 2 2 3 3 3 4 4 4 5 5 4 5 5 4 4 5 5 5 4 3 5 4 4 5 3 2 3 3 2 1 2 3 4 4 4 4
1 2 2 2 3 3 4 4 4 4 5 4 5 5 5 4 5 6 5 5 4 4 4 4 4 2 1 2 3 4 4 3 1 2 3 3 3 4
1 2 2 3 3 3 4 4 5 5 4 5 5 5 5 5 5 5 5 4 4 5 5 4 4 2 2 2 3 3 5 5 4 3 2 2 4 6
Wind_Direction
66 64 61 49 47 48 55 65 104 92 23 340 332 336 341 339 346 348 336 329 332 328 324 320 317 316 313 309 307 306 304 301 299 297 297 298 297 299
65 67 61 52 50 47 50 52 55 94 82 318 308 314 324 337 346 342 328 331 329 328 324 319 315 313 314 312 308 305 304 301 298 296 296 296 297 299
60 67 63 59 58 48 49 50 49 57 72 321 299 307 315 325 333 331 327 323 320 322 321 320 318 315 315 315 313 311 308 305 302 300 298 296 298 299
62 65 61 64 58 49 49 46 41 43 49 337 320 318 308 315 319 318 323 326 320 314 318 320 322 323 322 320 319 315 312 309 306 304 302 299 298 298
65 68 65 65 55 43 44 37 25 31 35 323 311 306 299 312 323 319 325 324 325 320 322 325 327 328 325 322 319 316 317 315 310 304 301 298 298 299
55 59 64 68 56 31 30 19 11 17 10 331 307 304 295 304 308 322 331 334 327 325 328 322 322 327 330 331 330 331 330 326 319 311 304 299 297 296
43 37 33 49 42 22 3 328 323 339 340 328 320 312 309 319 324 321 315 323 313 318 321 319 324 327 333 335 340 342 339 336 330 321 313 307 301 296
37 21 16 25 14 11 0 346 308 271 286 290 293 300 295 289 293 306 316 331 317 329 326 311 320 322 330 331 337 341 345 345 340 332 325 317 308 301
32 13 6 4 4 352 344 346 339 310 258 235 264 275 278 277 299 305 304 302 287 303 321 299 311 317 327 331 338 345 348 347 344 340 337 333 325 315
18 2 344 335 342 339 333 338 335 323 297 257 251 265 267 272 260 263 292 295 281 266 251 288 311 315 319 322 338 348 349 351 351 350 347 344 339 329
359 351 341 329 326 335 337 337 334 330 319 306 281 278 278 278 260 232 269 300 318 316 271 289 309 315 309 310 331 346 347 349 352 354 355 354 348 337
344 341 341 336 330 331 320 322 326 324 335 337 336 334 324 322 294 227 247 273 303 302 305 304 312 327 318 311 323 343 351 347 348 353 357 358 356 351
337 336 334 338 340 342 328 283 283 298 314 323 328 337 343 347 347 320 238 230 254 270 280 300 306 313 300 305 315 332 346 350 350 351 354 356 357 359
323 322 323 339 359 14 17 0 349 352 350 351 352 349 344 339 332 324 297 244 238 255 274 260 272 293 308 310 315 328 336 349 351 347 351 353 358 356
313 321 339 3 21 27 25 26 26 22 13 5 349 331 315 306 308 319 328 316 277 255 253 230 234 265 267 288 308 321 326 331 345 345 349 359 2 360
351 348 7 26 36 26 18 20 22 16 10 351 329 317 319 329 343 348 342 344 339 333 339 279 248 238 261 276 293 317 327 323 334 341 338 350 7 10
349 15 22 17 15 11 7 6 7 11 10 357 347 342 344 349 349 343 338 337 339 327 326 334 322 267 249 276 312 324 331 331 335 339 337 350 10 11
63 41 25 16 11 3 357 353 358 2 355 347 346 346 343 342 340 345 344 341 334 322 319 322 330 330 315 226 225 309 332 335 336 341 344 343 358 10
60 39 20 7 359 356 354 350 345 341 337 341 345 344 340 339 343 348 350 343 337 328 324 324 328 339 342 340 339 206 311 331 336 345 351 340 340 350
38 23 7 356 352 350 349 344 338 340 346 346 345 344 344 339 342 345 345 338 327 322 324 328 334 330 313 316 315 315 295 309 330 339 341 324 309 307
15 5 353 348 346 344 342 339 337 338 341 340 342 343 342 338 337 338 335 333 332 327 326 327 324 312 272 271 295 319 328 300 279 309 331 332 335 347
350 344 343 345 343 341 339 338 338 340 343 342 339 338 335 331 331 333 333 334 330 323 312 313 325 334 358 349 340 331 332 337 304 256 257 281 316 339
327 328 332 338 342 340 339 339 338 335 337 334 332 332 332 331 327 326 328 331 331 337 338 337 345 352 358 352 340 334 339 344 341 335 337 302 267 266